Regional Weather Roundup
Issued by NWS

Home | Current Version | Previous Version | Graphics & Text | Print | Product List | Glossary On
Versions: 1 2 3 4 5 6 7 8 9 10 11 12 13 14 15 16 17 18 19 20 21 22 23 24 25 26 27 28 29 30 31 32 33 34 35 36 37 38 39 40 41 42 43 44 45 46 47 48 49 50
000
ASUS43 KLSX 230959
RWRMO

WEATHER SUMMARY FOR MISSOURI
NATIONAL WEATHER SERVICE SPRINGFIELD MO
500 AM CDT THU MAR 23 2017

NOTE: "FAIR" INDICATES FEW OR NO CLOUDS BELOW 12,000 FEET WITH NO
       SIGNIFICANT WEATHER AND/OR OBSTRUCTIONS TO VISIBILITY.
       CURRENT SKY AND/OR WEATHER CONDITIONS ARE NOT AVAILABLE FOR
       CHILLICOTHE AND FARMINGTON.

MOZ001>031-035>038-043-044-053-054-231100-
...NORTHERN AND WESTERN MISSOURI...

CITY           SKY/WX    TMP DP  RH WIND       PRES   REMARKS
KANSAS CTY INT CLOUDY    50  31  48 SE14      30.08F
KANSAS C DTWN  CLOUDY    53  30  41 SE8       30.09F
LEE`S SUMMIT   CLOUDY    51  29  42 SE12      30.10F
ST JOSEPH      CLOUDY    50  29  44 SE9       30.10F
CHILLICOTHE      N/A     47  26  44 SE12      30.17S
KIRKSVILLE     CLOUDY    43  20  39 SE12      30.21F

$$
MOZ066>068-077>081-088>096-101>105-231100-
...SOUTHWEST MISSOURI...

CITY           SKY/WX    TMP DP  RH WIND       PRES   REMARKS
SPRINGFIELD    CLOUDY    49  28  44 SE18G25   30.14S
JOPLIN         CLOUDY    52  38  58 SE10      30.10S

$$
MOZ032>034-039>042-045>050-055>058-069>072-231100-
...CENTRAL MISSOURI...

CITY           SKY/WX    TMP DP  RH WIND       PRES   REMARKS
COLUMBIA       LGT RAIN  43  30  60 SE12      30.20F
JEFFERSON CITY LGT RAIN  46  29  51 E10       30.21F
ROLLA          CLOUDY    46  24  42 SE10      30.20F
SEDALIA        LGT RAIN  49  27  42 SE12      30.16F
WARRENSBURG    CLOUDY    50  28  43 E8        30.13F
OSAGE BEACH    CLOUDY   N/A N/A N/A SE9       30.20F

$$
MOZ051-052-059>065-231100-
...EAST CENTRAL MISSOURI...

CITY           SKY/WX    TMP DP  RH WIND       PRES   REMARKS
ST LOUIS INTL  LGT RAIN  43  24  47 SE13      30.30S
SPIRIT OF STL  CLOUDY    40  30  67 E7        30.27F
ST CHARLES     CLOUDY    41  23  48 MISG      30.30F

$$
MOZ072>076-082>087-097>100-106>115-231100-
...SOUTH CENTRAL AND SOUTHEAST MISSOURI...

CITY           SKY/WX    TMP DP  RH WIND       PRES   REMARKS
CAPE GIRARDEAU CLOUDY    44  23  43 E7        30.29F
FARMINGTON     CLOUDY    43  25  49 SE6       30.28S
POPLAR BLUFF   CLOUDY    46  30  53 E7        30.28F
WEST PLAINS    CLOUDY    47  23  38 SE7       30.24S

$$



USA.gov is the U.S. government's official web portal to all federal, state and local government web resources and services.